星链-1639 (STARLINK-1639 )

导读 | 星芒AI

STARLINK-1639 是 SpaceX Starlink 项目中的一颗低轨通信卫星,属于该星座的多个批次之一。该卫星于2023年发射,旨在为全球用户提供高速互联网服务。它运行在约550公里高的近地轨道,采用先进的通信技术,支持宽带数据传输。Starlink 卫星群致力于改善偏远地区的网络接入,同时推动全球互联网覆盖的公平性。STARLINK-1639 与其他 Starlink 卫星协同工作,提升系统整体性能和稳定性。

基本信息
目录编号:
46135
目录名称:
STARLINK-1639
国际标识:
2020-057U
轨道中心:
EARTH
卫星名称:
星链-1639
卫星全名:
星链-1639 (STARLINK-1639 )
卫星状态:
已陨落 最后检测时间 2025-08-09
发射日期:
2020-08-18 UTC
国别 :
美国 (US)
星等 :
--
轨道信息
数据来源 国际轨道数据
星历时间: 2025-08-09T21:48:52+0800
轨道信息已过期81天
半长轴: 6517.746km
偏心率: 0.0009089
轨道倾角: 53.015°
近地点辐角 272.846°
升交点赤经 91.269°
平近点角 176.497°
近地点: 133.687km
远地点: 145.535km
周期: 87.278分钟
每日圈数: 16.498965
详细信息
固有亮度:
5
最大亮度:
2.5
卫星平台:
Starlink V1.0
覆盖范围:
全球
运营商:
太空探索技术公司
运营商所在国:
美国
制造商(研发单位):
太空探索技术公司
制造商所在国:
美国
使用方式:
暂无
卫星简介
星链(Starlink)计划是由太空探索技术公司(SpaceX)提出的一个巨型低轨卫星互联网星座项目,计划在2019年至2024年间在太空搭建由约1.2万颗卫星组成的“星链”网络,其中1584颗将部署在地球上空550千米处的近地轨道,并从2020年开始工作。该卫星仍在工作。